FW9268 Weather Reports


time (UTC)temp
F
wind
direction
speed
knots
gust
knots
rain 1hr
in
rain 24hr
in
rain mn
in
humidity
%
barometer
mb
20260503050054 50 219 2.6 6.1 0.00 0.00 0.00 52 1011.1
20260503050037 50 219 1.7 6.1 0.00 0.00 0.00 52 1017.7
20260503044555 51 254 2.6 6.1 0.00 0.00 0.00 51 1011.3
20260503044536 51 254 1.7 6.1 0.00 0.00 0.00 50 1017.8
20260503043052 51 194 5.2 8.7 0.00 0.00 0.00 51 1011.2
20260503043045 51 188 4.3 8.7 0.00 0.00 0.00 50 1017.7
20260503041552 51 193 4.3 8.7 0.00 0.00 0.00 51 1011.4
20260503041543 51 195 4.3 9.6 0.00 0.00 0.00 51 1017.8
20260503040050 51 209 3.5 7.8 0.00 0.00 0.00 52 1011.5
20260503040040 51 209 3.5 7.8 0.00 0.00 0.00 52 1017.9
20260503034601 51 188 3.5 6.1 0.00 0.00 0.00 51 1011.8
20260503034544 51 188 4.3 6.1 0.00 0.00 0.00 51 1018.1
20260503033054 51 192 2.6 5.2 0.00 0.00 0.00 51 1012.1
20260503033050 51 192 2.6 5.2 0.00 0.00 0.00 50 1018.3
20260503031548 50 192 3.5 6.1 0.00 0.00 0.00 52 1012.2
20260503031538 50 192 3.5 6.1 0.00 0.00 0.00 51 1018.5
20260503030044 51 194 3.5 5.2 0.00 0.00 0.00 50 1012.5
20260503030040 51 194 2.6 5.2 0.00 0.00 0.00 49 1018.8
20260503024547 51 226 3.5 5.2 0.00 0.00 0.00 47 1018.9
20260503024540 51 226 3.5 5.2 0.00 0.00 0.00 48 1012.5
20260503023045 52 239 1.7 4.3 0.00 0.00 0.00 48 1018.9
20260503023037 52 239 2.6 4.3 0.00 0.00 0.00 48 1012.7
20260503021539 52 242 1.7 3.5 0.00 0.00 0.00 48 1019.1
20260503021536 52 242 1.7 3.5 0.00 0.00 0.00 48 1012.9
20260503020035 53 243 1.7 6.1 0.00 0.00 0.00 46 1019.0
20260503014538 53 244 1.7 3.5 0.00 0.00 0.00 44 1013.0
20260503014536 53 244 1.7 3.5 0.00 0.00 0.00 44 1019.1
20260503013039 54 244 0.9 2.6 0.00 0.00 0.00 42 1019.1
20260503013034 54 244 0.0 2.6 0.00 0.00 0.00 42 1013.1
20260503011546 54 244 1.7 4.3 0.00 0.00 0.00 42 1019.2
20260503011532 54 244 1.7 3.5 0.00 0.00 0.00 42 1013.1
20260503010039 55 245 0.9 4.3 0.00 0.00 0.00 42 1019.3
20260503010035 55 245 0.9 3.5 0.00 0.00 0.00 42 1013.3
20260503004539 55 244 1.7 8.7 0.00 0.00 0.00 40 1019.5
20260503004532 55 244 0.9 6.1 0.00 0.00 0.00 41 1013.4
20260503003046 56 248 0.9 7.0 0.00 0.00 0.00 40 1013.5
20260503003039 56 247 0.9 7.0 0.00 0.00 0.00 40 1019.5
20260503001547 56 252 2.6 7.8 0.00 0.00 0.00 37 1013.6
20260503001536 56 252 2.6 12.2 0.00 0.00 0.00 37 1019.5
20260503000042 56 213 3.5 12.2 0.00 0.00 0.00 36 1019.7
20260503000027 56 213 5.2 10.4 0.00 0.00 0.00 37 1013.7
20260502234558 57 253 3.5 11.3 0.00 0.00 0.00 36 1019.8
20260502234533 57 253 2.6 10.4 0.00 0.00 0.00 37 1013.8
20260502233039 57 263 5.2 12.2 0.00 0.00 0.00 36 1019.9
20260502233027 57 263 4.3 12.2 0.00 0.00 0.00 36 1014.1
20260502231538 57 254 4.3 12.2 0.00 0.00 0.00 35 1019.9
20260502231524 57 254 5.2 12.2 0.00 0.00 0.00 35 1014.0
20260502230035 58 279 5.2 13.9 0.00 0.00 0.00 32 1019.8
20260502230032 58 279 3.5 13.0 0.00 0.00 0.00 33 1014.0
20260502224535 58 217 7.0 14.8 0.00 0.00 0.00 32 1019.9
20260502224524 58 217 7.8 14.8 0.00 0.00 0.00 32 1014.0
20260502223049 58 258 5.2 13.9 0.00 0.00 0.00 30 1020.1
20260502223021 58 235 5.2 13.9 0.00 0.00 0.00 31 1014.2
20260502221541 58 240 6.1 13.9 0.00 0.00 0.00 29 1020.1
20260502221521 58 240 5.2 13.9 0.00 0.00 0.00 28 1014.2
20260502220038 58 227 3.5 9.6 0.00 0.00 0.00 30 1020.2
20260502220022 58 227 2.6 9.6 0.00 0.00 0.00 31 1014.3
20260502214538 57 269 2.6 14.8 0.00 0.00 0.00 31 1020.5
20260502214516 57 259 2.6 14.8 0.00 0.00 0.00 31 1014.5
20260502213047 58 230 3.5 16.5 0.00 0.00 0.00 32 1020.4
20260502213022 58 230 3.5 13.9 0.00 0.00 0.00 32 1014.6
20260502211542 58 259 7.8 14.8 0.00 0.00 0.00 28 1020.5
20260502211519 58 276 7.8 13.0 0.00 0.00 0.00 28 1014.7
20260502210041 58 222 2.6 11.3 0.00 0.00 0.00 30 1020.6
20260502210014 58 221 2.6 11.3 0.00 0.00 0.00 31 1014.9
20260502204538 57 284 2.6 10.4 0.00 0.00 0.00 40 1020.8
20260502204514 57 284 2.6 10.4 0.00 0.00 0.00 33 1015.1
20260502203045 57 300 3.5 10.4 0.00 0.00 0.00 37 1021.0
20260502203011 57 300 3.5 10.4 0.00 0.00 0.00 31 1015.3
20260502201539 56 323 3.5 11.3 0.00 0.00 0.00 32 1021.4
20260502201509 56 308 1.7 10.4 0.00 0.00 0.00 32 1015.7
20260502200039 56 255 4.3 12.2 0.00 0.00 0.00 28 1021.7
20260502200006 56 257 3.5 12.2 0.00 0.00 0.00 29 1016.0
20260502194539 57 242 4.3 12.2 0.00 0.00 0.00 30 1021.9
20260502194505 57 250 5.2 12.2 0.00 0.00 0.00 31 1016.1
20260502193055 57 299 6.1 13.0 0.00 0.00 0.00 31 1022.1
20260502193003 57 323 6.1 13.0 0.00 0.00 0.00 32 1016.3
20260502191540 56 320 7.0 11.3 0.00 0.00 0.00 31 1022.2
20260502191501 56 302 7.0 11.3 0.00 0.00 0.00 32 1016.5
20260502190100 55 228 4.3 8.7 0.00 0.00 0.00 34 1016.8
20260502190043 55 239 5.2 13.9 0.00 0.00 0.00 34 1022.4
20260502184610 55 261 4.3 11.3 0.00 0.00 0.00 35 1017.0
20260502184545 55 261 5.2 11.3 0.00 0.00 0.00 34 1022.7
20260502183103 55 285 5.2 13.0 0.00 0.00 0.00 34 1017.3
20260502183040 55 341 5.2 13.0 0.00 0.00 0.00 34 1023.0
20260502181608 54 360 3.5 13.0 0.00 0.00 0.00 33 1017.5
20260502181543 54 305 3.5 13.0 0.00 0.00 0.00 31 1023.1
20260502163059 52 325 4.3 9.6 0.00 0.00 0.00 36 1024.3
20260502163049 52 355 3.5 9.6 0.00 0.00 0.00 33 1018.8
20260502161541 51 250 5.2 9.6 0.00 0.00 0.00 37 1024.4
20260502161538 52 334 4.3 9.6 0.00 0.00 0.00 38 1018.9
20260502151552 49 229 2.6 6.1 0.00 0.00 0.00 38 1024.9
20260502151522 49 230 3.5 6.1 0.00 0.00 0.00 39 1019.5
20260502123055 31 329 0.0 0.0 0.00 0.00 0.00 84 1020.8
20260502123043 31 0 0.0 0.0 0.00 0.00 0.00 83 1026.1
20260502121539 29 0 0.0 0.0 0.00 0.00 0.00 84 1026.1
20260502121536 29 329 0.0 0.0 0.00 0.00 0.00 84 1020.8
20260502114540 27 0 0.0 1.7 0.00 0.00 0.00 89 1026.0
20260502114531 27 329 0.0 0.0 0.00 0.00 0.00 89 1020.7
20260502113044 26 0 0.0 0.0 0.00 0.00 0.00 89 1026.0
20260502113032 26 329 0.0 0.0 0.00 0.00 0.00 90 1020.8
20260502111542 26 0 0.0 0.0 0.00 0.00 0.00 88 1026.0
20260502111529 26 329 0.0 0.0 0.00 0.00 0.00 89 1020.7
20260502110044 25 0 0.0 0.0 0.00 0.00 0.00 89 1026.0
20260502110026 25 329 0.0 0.0 0.00 0.00 0.00 89 1020.7
20260502104543 26 0 0.0 0.0 0.00 0.00 0.00 89 1026.0
20260502104534 26 329 0.0 0.0 0.00 0.00 0.00 89 1020.7
20260502103125 26 329 0.0 0.0 0.00 0.00 0.00 88 1020.8
20260502103038 26 0 0.0 0.0 0.00 0.00 0.00 87 1026.0
20260502101546 25 0 0.0 0.0 0.00 0.00 0.00 90 1026.0
20260502101525 25 329 0.0 0.0 0.00 0.00 0.00 90 1020.8
20260502091518 27 329 0.0 0.0 0.00 0.00 0.00 86 1021.0
20260502071505 29 329 0.0 0.0 0.00 0.00 0.00 83 1021.2
20260502070100 29 0 0.0 0.0 0.00 0.00 0.00 83 1026.5
20260502070003 29 329 0.0 0.0 0.00 0.00 0.00 83 1021.3
20260502064545 30 0 0.0 0.0 0.00 0.00 0.00 80 1026.6
20260502064501 30 329 0.0 0.0 0.00 0.00 0.00 81 1021.4
20260502063102 30 329 0.0 0.0 0.00 0.00 0.00 78 1021.5
20260502063037 30 0 0.0 0.0 0.00 0.00 0.00 78 1026.7
20260502061600 30 329 0.0 0.0 0.00 0.00 0.00 79 1021.5
20260502061544 30 0 0.0 0.0 0.00 0.00 0.00 78 1026.8
20260502060058 30 329 0.0 0.0 0.00 0.00 0.00 80 1021.4
20260502060045 30 0 0.0 0.0 0.00 0.00 0.00 80 1026.7
20260502054558 31 0 0.0 0.0 0.00 0.00 0.00 78 1026.8
20260502053109 32 329 0.0 0.0 0.00 0.00 0.00 82 1021.4
20260502053042 32 0 0.0 0.0 0.00 0.00 0.00 80 1026.8
20260502051551 32 329 0.0 0.0 0.00 0.00 0.00 83 1021.4
20260502051540 32 0 0.0 0.0 0.00 0.00 0.00 82 1026.8